This is the latest recevied weather packets stored in our database for station/object W4WYD-2. If no packets are shown the sender has not sent any weather packets the latest 10 day(s).
| Time | Temp. | Humidity | Pressure | Rain* | Wind** | Luminosity | Snow |
|---|---|---|---|---|---|---|---|
| 1787699967 | 28.89° C | 71% | 1016.9 hPa | 0 mm | - | 81 W/m² | - |
| 1787699662 | 29.44° C | 68% | 1017.2 hPa | 0 mm | - | 92 W/m² | - |
| 1787699358 | 30° C | 64% | 1017.1 hPa | 0 mm | - | 101 W/m² | - |
| 1787699054 | 30.56° C | 59% | 1017 hPa | 0 mm | - | 109 W/m² | - |
| 1787698749 | 30.56° C | 63% | 1017 hPa | 0 mm | - | 123 W/m² | - |
| 1787698445 | 31.11° C | 60% | 1017.1 hPa | 0 mm | - | 138 W/m² | - |
| 1787698141 | 31.67° C | 57% | 1017.1 hPa | 0 mm | - | 155 W/m² | - |
| 1787697835 | 31.11° C | 62% | 1017.1 hPa | 0 mm | - | 172 W/m² | - |
| 1787697530 | 31.11° C | 53% | 1017 hPa | 0 mm | - | 186 W/m² | - |
| 1787697226 | 31.11° C | 56% | 1016.9 hPa | 0 mm | - | 202 W/m² | - |
| 1787696922 | 32.22° C | 55% | 1016.8 hPa | 0 mm | - | 218 W/m² | - |
| 1787696617 | 31.67° C | 51% | 1017 hPa | 0 mm | - | 232 W/m² | - |
| 1787696312 | 32.22° C | 49% | 1017 hPa | 0 mm | - | 248 W/m² | - |
| 1787696007 | 32.22° C | 56% | 1016.9 hPa | 0 mm | - | 266 W/m² | - |
| 1787695706 | 31.67° C | 51% | 1016.8 hPa | 0 mm | - | 279 W/m² | - |
| 1787695404 | 32.22° C | 49% | 1016.8 hPa | 0 mm | - | 296 W/m² | - |
| 1787695098 | 32.78° C | 49% | 1016.7 hPa | 0 mm | - | 318 W/m² | - |
| 1787694796 | 32.78° C | 53% | 1016.8 hPa | 0 mm | - | 333 W/m² | - |
| 1787694493 | 32.22° C | 49% | 1017 hPa | 0 mm | - | 349 W/m² | - |
| 1787694192 | 31.67° C | 51% | 1016.9 hPa | 0 mm | - | 368 W/m² | - |
| 1787693888 | 32.78° C | 48% | 1016.9 hPa | 0 mm | - | 389 W/m² | - |
| 1787693584 | 32.22° C | 49% | 1016.8 hPa | 0 mm | - | 406 W/m² | - |
| 1787693280 | 31.67° C | 48% | 1016.9 hPa | 0 mm | - | 425 W/m² | - |
| 1787692975 | 32.22° C | 48% | 1017.2 hPa | 0 mm | - | 441 W/m² | - |
| 1787692670 | 32.78° C | 46% | 1017.2 hPa | 0 mm | - | 457 W/m² | - |
* Rain latest hour (hover to see other rain measurements)
** Current wind speed in m/s (hover to see current wind gust speed)